Whitehorse, Yukon Territory

10:35 PM PDT on August 26, 2016 (GMT -0700)
Whitehorse International

Weather History for CYXY - February, 2015

Change the Weather History Date:

Wednesday, February 25, 2015

  Actual Average Record
Temperature  
Mean Temperature 20 °F -  
Max Temperature 27 °F 27 °F 36 °F (2016)
Min Temperature 12 °F 6 °F -22 °F (2006)
Degree Days  
Heating Degree Days 46    
Moisture  
Dew Point 15 °F    
Average Humidity 75    
Maximum Humidity 86    
Minimum Humidity 52    
Precipitation  
Precipitation 0.00 in 0.02 in - ()
Sea Level Pressure  
Sea Level Pressure 30.41 in    
Wind  
Wind Speed 4 mph ()    
Max Wind Speed 8 mph    
Max Gust Speed -    
Visibility 13.9 miles    
Events Snow    
Averages and records for this station are not official NWS values.
T = Trace of Precipitation, MM = Missing Value Source: Averaged Metar Reports

Daily Weather History Graph

Daily Weather History Graph

Search for Another Location

Airport or City:

Trip Planner

Search our weather history database for the weather conditions in past years. The results will help you decide how hot, cold, wet, or windy it might be!

Date:

Astronomy

Feb. 25, 2015 Rise Set
Actual Time 8:12 AM PST 6:15 PM PST
Civil Twilight 7:28 AM PST 6:59 PM PST
Nautical Twilight 6:39 AM PST 7:48 PM PST
Astronomical Twilight 5:50 AM PST 8:38 PM PST
Moon 10:50 AM PST (2/25) 2:57 AM PST (2/25)
Length of Visible Light 11h 30m
Length of Day
10h 03m
Waxing Crescent, 51% of the Moon is Illuminated
Feb 25
Waxing Crescent
Mar 5
Full
Mar 13
Last Quarter
Mar 20
New
Mar 27
First Quarter

Hourly Weather History & Observations

Time (PST) Temp. Windchill Dew Point Humidity Pressure Visibility Wind Dir Wind Speed Gust Speed Precip Events Conditions
12:00 AM 21.2 °F 11.7 °F 14.0 °F 74% 30.39 in 15.0 mi SW 8.1 mph - N/A   Clear
1:00 AM 21.2 °F 14.9 °F 14.0 °F 74% 30.40 in 15.0 mi SSW 4.6 mph - N/A   Clear
2:00 AM 21.2 °F 16.4 °F 14.0 °F 74% 30.39 in 15.0 mi South 3.5 mph - N/A   Clear
3:00 AM 19.4 °F 12.8 °F 14.0 °F 80% 30.38 in 15.0 mi South 4.6 mph - N/A   Clear
4:00 AM 18 °F - 13 °F 71% 30.38 in 15 mi South 4.6 mph - -  
4:00 AM 17.6 °F 10.7 °F 12.2 °F 79% 30.38 in 15.0 mi SSE 4.6 mph - N/A   Clear
5:00 AM 17.6 °F - 12.2 °F 79% 30.38 in 15.0 mi Calm Calm - N/A   Clear
6:00 AM 12.2 °F 1.7 °F 6.8 °F 79% 30.38 in 15.0 mi SSE 6.9 mph - N/A   Clear
7:00 AM 15.8 °F - 12.2 °F 86% 30.39 in 15.0 mi Variable 2.3 mph - N/A   Partly Cloudy
8:00 AM 15.8 °F - 12.2 °F 86% 30.41 in 40.0 mi Calm Calm - N/A   Mostly Cloudy
9:00 AM 14.0 °F 8.2 °F 10.4 °F 86% 30.43 in 40.0 mi WSW 3.5 mph - N/A   Overcast
10:00 AM 16 °F - 12 °F 78% 30.44 in 37 mi North 1.2 mph - -   Overcast
10:00 AM 15.8 °F - 12.2 °F 86% 30.44 in 40.0 mi Variable 2.3 mph - N/A   Overcast
11:00 AM 17.6 °F - 14.0 °F 86% 30.44 in 40.0 mi SSE 2.3 mph - N/A   Overcast
12:00 PM 19.4 °F - 14.0 °F 80% 30.43 in 40.0 mi Calm Calm - N/A   Overcast
1:00 PM 23.0 °F - 15.8 °F 74% 30.42 in 40.0 mi Variable 2.3 mph - N/A   Overcast
2:00 PM 24.8 °F - 15.8 °F 69% 30.41 in 40.0 mi Calm Calm - N/A   Overcast
3:00 PM 26.6 °F - 17.6 °F 69% 30.40 in 40.0 mi Variable 2.3 mph - N/A   Overcast
4:00 PM 27 °F - 17 °F 52% 30.40 in 37 mi NNW 3.5 mph - -   Overcast
4:00 PM 26.6 °F 21.2 °F 15.8 °F 64% 30.40 in 40.0 mi NNW 4.6 mph - N/A   Overcast
5:00 PM 26.6 °F - 15.8 °F 64% 30.39 in 40.0 mi North 2.3 mph - N/A   Overcast
6:00 PM 26.6 °F 22.6 °F 15.8 °F 64% 30.40 in 40.0 mi North 3.5 mph - N/A   Overcast
7:00 PM 24.8 °F 17.9 °F 15.8 °F 69% 30.41 in 40.0 mi NNW 5.8 mph - N/A   Overcast
8:00 PM 24.8 °F 19.1 °F 17.6 °F 74% 30.42 in 15.0 mi NNW 4.6 mph - N/A Snow Light Snow
9:00 PM 24.8 °F 17.9 °F 17.6 °F 74% 30.43 in 15.0 mi NNW 5.8 mph - N/A Snow Light Snow
10:00 PM 24 °F - 18 °F 70% 30.45 in 10 mi NNW 6.9 mph - -   Overcast
10:00 PM 24.8 °F 16.9 °F 17.6 °F 74% 30.45 in 10.0 mi NNW 6.9 mph - N/A Snow Light Snow
11:00 PM 24.8 °F 16.9 °F 19.4 °F 80% 30.45 in 10.0 mi NNW 6.9 mph - N/A Snow Light Snow